BG4WDV-11 Weather Reports


time (UTC)temp
C
wind
direction
speed
KPH
gust
KPH
rain 1hr
cm
rain 24hr
cm
rain mn
cm
humidity
%
barometer
mb
20260504110632 22 0 0.0 0.0 0.00 0.00 0.00 50 1012.3
20260504110532 22 45 0.0 0.0 0.00 0.00 0.00 50 1012.3
20260504110432 22 45 0.0 0.0 0.00 0.00 0.00 49 1012.3
20260504110332 22 45 0.0 0.0 0.00 0.00 0.00 49 1012.3
20260504110232 22 45 0.0 0.0 0.00 0.00 0.00 49 1012.2
20260504110132 22 45 0.0 0.0 0.00 0.00 0.00 49 1012.3
20260504100532 25 0 0.0 3.2 0.00 0.00 0.00 45 1012.2
20260504100432 25 0 0.0 3.2 0.00 0.00 0.00 46 1012.2
20260504100331 25 225 0.0 3.2 0.00 0.00 0.00 46 1012.2
20260504100232 25 45 0.0 3.2 0.00 0.00 0.00 46 1012.3
20260504100132 25 45 0.0 3.2 0.00 0.00 0.00 46 1012.3
20260504090132 27 0 0.0 4.8 0.00 0.00 0.00 43 1012.2
20260504081931 27 90 0.0 6.4 0.00 0.00 0.00 41 1012.2
20260504081831 27 45 1.6 6.4 0.00 0.00 0.00 41 1012.2
20260504081731 27 90 1.6 6.4 0.00 0.00 0.00 41 1012.1
20260504081631 27 0 1.6 4.8 0.00 0.00 0.00 42 1012.3
20260504081531 27 45 1.6 4.8 0.00 0.00 0.00 41 1012.2
20260504081431 27 45 1.6 4.8 0.00 0.00 0.00 41 1012.1
20260504081331 27 0 1.6 4.8 0.00 0.00 0.00 42 1012.2
20260504081231 27 45 1.6 4.8 0.00 0.00 0.00 42 1012.2
20260504081131 27 45 1.6 4.8 0.00 0.00 0.00 42 1012.3
20260504081031 27 45 0.0 4.8 0.00 0.00 0.00 42 1012.2
20260504080931 27 90 0.0 4.8 0.00 0.00 0.00 42 1012.4
20260504080831 27 45 0.0 4.8 0.00 0.00 0.00 43 1012.3
20260504080731 27 90 0.0 4.8 0.00 0.00 0.00 43 1012.3
20260504080631 27 0 1.6 4.8 0.00 0.00 0.00 43 1012.1
20260504080531 27 315 1.6 6.4 0.00 0.00 0.00 43 1012.1
20260504080431 26 0 0.0 6.4 0.00 0.00 0.00 43 1012.2
20260504080331 26 0 0.0 6.4 0.00 0.00 0.00 43 1012.4
20260504080231 26 90 1.6 6.4 0.00 0.00 0.00 43 1012.2
20260504080131 26 90 1.6 6.4 0.00 0.00 0.00 42 1012.3
20260504070331 28 225 1.6 6.4 0.00 0.00 0.00 42 1012.6
20260504070230 28 0 1.6 6.4 0.00 0.00 0.00 42 1012.5
20260504070131 28 45 3.2 6.4 0.00 0.00 0.00 42 1012.6
20260504060231 28 45 0.0 8.0 0.00 0.00 0.00 43 1013.5
20260504060130 28 45 0.0 8.0 0.00 0.00 0.00 43 1013.4
20260504050730 27 0 1.6 8.0 0.00 0.00 0.00 45 1014.1
20260504050630 27 90 1.6 8.0 0.00 0.00 0.00 46 1014.2
20260504050530 27 45 3.2 8.0 0.00 0.00 0.00 47 1014.2
20260504050430 27 45 4.8 8.0 0.00 0.00 0.00 47 1014.1
20260504050330 27 90 3.2 8.0 0.00 0.00 0.00 46 1014.3
20260504050230 27 90 3.2 8.0 0.00 0.00 0.00 46 1014.1
20260504050130 27 90 1.6 8.0 0.00 0.00 0.00 46 1014.3
20260504045930 27 315 3.2 8.0 0.00 0.00 0.00 46 1014.1
20260504045830 27 315 3.2 8.0 0.00 0.00 0.00 46 1014.2
20260504045730 27 0 3.2 8.0 0.00 0.00 0.00 46 1014.3
20260504045630 27 90 3.2 9.7 0.00 0.00 0.00 46 1014.1
20260504045530 27 45 3.2 9.7 0.00 0.00 0.00 47 1014.2
20260504045430 27 45 3.2 9.7 0.00 0.00 0.00 46 1014.2
20260504045330 27 0 3.2 9.7 0.00 0.00 0.00 46 1014.2
20260504045230 27 0 3.2 9.7 0.00 0.00 0.00 47 1014.2
20260504045130 27 90 4.8 9.7 0.00 0.00 0.00 47 1014.2
20260504045030 27 45 4.8 9.7 0.00 0.00 0.00 47 1014.1
20260504044930 27 45 3.2 9.7 0.00 0.00 0.00 47 1014.2
20260504044830 27 90 4.8 9.7 0.00 0.00 0.00 47 1014.3
20260504044730 27 45 3.2 9.7 0.00 0.00 0.00 47 1014.3
20260504044630 27 45 1.6 8.0 0.00 0.00 0.00 47 1014.2
20260504044530 27 90 3.2 8.0 0.00 0.00 0.00 47 1014.2
20260504044430 27 45 1.6 8.0 0.00 0.00 0.00 48 1014.2
20260504044330 26 45 1.6 8.0 0.00 0.00 0.00 48 1014.3
20260504044230 26 0 3.2 8.0 0.00 0.00 0.00 48 1014.3
20260504044130 26 45 3.2 8.0 0.00 0.00 0.00 49 1014.3
20260504044030 26 45 1.6 8.0 0.00 0.00 0.00 47 1014.2
20260504043930 26 45 1.6 8.0 0.00 0.00 0.00 48 1014.3
20260504043830 26 90 3.2 8.0 0.00 0.00 0.00 48 1014.4
20260504043730 26 45 1.6 8.0 0.00 0.00 0.00 48 1014.2
20260504043630 26 90 0.0 8.0 0.00 0.00 0.00 48 1014.3
20260504043530 26 45 1.6 8.0 0.00 0.00 0.00 48 1014.4
20260504043430 26 90 3.2 8.0 0.00 0.00 0.00 48 1014.3
20260504043330 26 45 1.6 8.0 0.00 0.00 0.00 48 1014.4
20260504043230 26 90 1.6 8.0 0.00 0.00 0.00 48 1014.3
20260504043130 26 225 1.6 8.0 0.00 0.00 0.00 47 1014.3
20260504043030 26 45 0.0 9.7 0.00 0.00 0.00 47 1014.4
20260504042930 26 90 1.6 9.7 0.00 0.00 0.00 48 1014.3
20260504042830 26 45 3.2 9.7 0.00 0.00 0.00 48 1014.3
20260504042730 26 90 3.2 9.7 0.00 0.00 0.00 48 1014.2
20260504042630 26 45 4.8 9.7 0.00 0.00 0.00 48 1014.2
20260504042530 26 45 4.8 9.7 0.00 0.00 0.00 48 1014.4
20260504042430 26 45 4.8 9.7 0.00 0.00 0.00 48 1014.3
20260504042330 26 45 4.8 9.7 0.00 0.00 0.00 48 1014.4
20260504042230 26 45 3.2 9.7 0.00 0.00 0.00 48 1014.4
20260504042130 26 45 3.2 9.7 0.00 0.00 0.00 48 1014.4
20260504042030 26 45 1.6 9.7 0.00 0.00 0.00 48 1014.4
20260504041930 26 45 1.6 9.7 0.00 0.00 0.00 48 1014.4
20260504041830 26 45 3.2 9.7 0.00 0.00 0.00 48 1014.4
20260504041730 26 45 3.2 9.7 0.00 0.00 0.00 48 1014.3
20260504041630 26 45 3.2 9.7 0.00 0.00 0.00 48 1014.4
20260504041530 26 90 3.2 9.7 0.00 0.00 0.00 47 1014.4
20260504041430 26 0 1.6 9.7 0.00 0.00 0.00 47 1014.5
20260504041330 26 90 1.6 9.7 0.00 0.00 0.00 47 1014.4
20260504041230 26 225 3.2 9.7 0.00 0.00 0.00 47 1014.3
20260504041130 26 45 4.8 9.7 0.00 0.00 0.00 47 1014.4
20260504041030 26 0 3.2 8.0 0.00 0.00 0.00 46 1014.4
20260504040930 26 0 3.2 8.0 0.00 0.00 0.00 47 1014.5
20260504040830 26 45 3.2 8.0 0.00 0.00 0.00 47 1014.5
20260504040730 26 45 3.2 8.0 0.00 0.00 0.00 47 1014.5
20260504040630 26 45 1.6 8.0 0.00 0.00 0.00 47 1014.6
20260504040530 26 0 0.0 8.0 0.00 0.00 0.00 47 1014.5
20260504040430 26 90 0.0 6.4 0.00 0.00 0.00 47 1014.6
20260504040330 26 90 0.0 6.4 0.00 0.00 0.00 47 1014.6
20260504040230 26 1 6.4 0.0 0.00 0.00 0.00 47 1014.6
20260504040030 26 90 3.2 6.4 0.00 0.00 0.00 47 1014.7
20260504035930 26 45 1.6 6.4 0.00 0.00 0.00 47 1014.5
20260504035830 26 90 0.0 6.4 0.00 0.00 0.00 47 1014.6
20260504035730 26 45 3.2 6.4 0.00 0.00 0.00 47 1014.8
20260504035630 26 90 3.2 6.4 0.00 0.00 0.00 47 1014.7
20260504035530 26 90 3.2 6.4 0.00 0.00 0.00 47 1014.6
20260504035430 26 45 3.2 6.4 0.00 0.00 0.00 46 1014.8
20260504035330 26 0 1.6 4.8 0.00 0.00 0.00 46 1014.6
20260504035230 26 45 0.0 6.4 0.00 0.00 0.00 47 1014.7
20260504035130 26 0 0.0 6.4 0.00 0.00 0.00 47 1014.7
20260504035030 26 90 0.0 6.4 0.00 0.00 0.00 47 1014.8
20260504034930 26 45 0.0 6.4 0.00 0.00 0.00 46 1014.7
20260504034830 26 90 0.0 6.4 0.00 0.00 0.00 46 1014.7
20260504034730 26 315 0.0 6.4 0.00 0.00 0.00 46 1014.8
20260504034630 26 0 0.0 6.4 0.00 0.00 0.00 44 1014.7
20260504034530 27 90 0.0 6.4 0.00 0.00 0.00 45 1014.7
20260504034430 27 45 0.0 6.4 0.00 0.00 0.00 46 1014.7
20260504034330 27 90 1.6 6.4 0.00 0.00 0.00 46 1014.8
20260504034229 27 45 1.6 6.4 0.00 0.00 0.00 47 1014.9
20260504034130 27 90 3.2 6.4 0.00 0.00 0.00 47 1014.8
20260504034030 27 45 3.2 6.4 0.00 0.00 0.00 47 1014.9
20260504033930 27 45 3.2 6.4 0.00 0.00 0.00 46 1014.9
20260504033830 27 45 1.6 6.4 0.00 0.00 0.00 47 1015.0
20260504033730 26 45 0.0 6.4 0.00 0.00 0.00 47 1014.9
20260504033630 26 45 0.0 6.4 0.00 0.00 0.00 48 1015.0
20260504033530 26 45 1.6 6.4 0.00 0.00 0.00 48 1014.9
20260504033430 26 90 0.0 8.0 0.00 0.00 0.00 48 1014.9
20260504033330 26 45 0.0 8.0 0.00 0.00 0.00 49 1015.0
20260504033230 26 45 0.0 8.0 0.00 0.00 0.00 49 1015.0
20260504033130 26 45 0.0 8.0 0.00 0.00 0.00 48 1015.0
20260504033030 26 45 1.6 8.0 0.00 0.00 0.00 49 1014.9
20260504032930 26 45 1.6 8.0 0.00 0.00 0.00 49 1015.0
20260504032830 25 45 1.6 8.0 0.00 0.00 0.00 50 1015.1
20260504032730 25 45 0.0 8.0 0.00 0.00 0.00 50 1015.0
20260504032630 25 0 0.0 8.0 0.00 0.00 0.00 50 1014.9
20260504032530 25 45 0.0 8.0 0.00 0.00 0.00 50 1014.9
20260504032430 25 0 1.6 6.4 0.00 0.00 0.00 51 1015.1
20260504032330 25 0 1.6 6.4 0.00 0.00 0.00 50 1015.0
20260504032230 25 45 1.6 6.4 0.00 0.00 0.00 50 1015.0
20260504032130 25 0 0.0 8.0 0.00 0.00 0.00 51 1015.2
20260504032030 25 45 0.0 8.0 0.00 0.00 0.00 50 1015.1
20260504031930 25 45 0.0 8.0 0.00 0.00 0.00 50 1015.1
20260504031830 25 0 1.6 8.0 0.00 0.00 0.00 50 1015.1
20260504031730 25 45 3.2 8.0 0.00 0.00 0.00 50 1015.2
20260504031630 25 0 3.2 8.0 0.00 0.00 0.00 51 1015.1
20260504031530 25 45 1.6 8.0 0.00 0.00 0.00 51 1015.2
20260504031430 25 0 0.0 8.0 0.00 0.00 0.00 52 1015.3
20260504031330 25 45 0.0 8.0 0.00 0.00 0.00 51 1015.3
20260504031230 25 45 1.6 8.0 0.00 0.00 0.00 50 1015.2
20260504031130 25 0 1.6 6.4 0.00 0.00 0.00 50 1015.3
20260504031030 25 0 0.0 4.8 0.00 0.00 0.00 50 1015.1
20260504030930 25 90 0.0 4.8 0.00 0.00 0.00 50 1015.2
20260504030830 25 45 0.0 4.8 0.00 0.00 0.00 50 1015.2
20260504030730 25 45 0.0 4.8 0.00 0.00 0.00 50 1015.2
20260504030630 25 225 0.0 4.8 0.00 0.00 0.00 49 1015.2
20260504030530 26 45 0.0 4.8 0.00 0.00 0.00 49 1015.2
20260504030430 26 0 1.6 4.8 0.00 0.00 0.00 49 1015.2
20260504030329 26 90 0.0 4.8 0.00 0.00 0.00 50 1015.3
20260504030230 26 90 0.0 4.8 0.00 0.00 0.00 49 1015.3
20260504030130 26 45 1.6 6.4 0.00 0.00 0.00 49 1015.3
20260504030030 26 45 1.6 6.4 0.00 0.00 0.00 49 1015.2
20260504025930 26 90 0.0 6.4 0.00 0.00 0.00 49 1015.3
20260504025830 26 45 0.0 6.4 0.00 0.00 0.00 49 1015.3
20260504025730 26 45 0.0 6.4 0.00 0.00 0.00 49 1015.2
20260504025630 26 90 0.0 6.4 0.00 0.00 0.00 49 1015.2
20260504025530 26 45 0.0 6.4 0.00 0.00 0.00 49 1015.3
20260504025429 26 45 0.0 6.4 0.00 0.00 0.00 50 1015.4
20260504025330 26 90 3.2 6.4 0.00 0.00 0.00 50 1015.4
20260504025230 26 45 3.2 6.4 0.00 0.00 0.00 50 1015.4
20260504025130 26 45 0.0 6.4 0.00 0.00 0.00 50 1015.3
20260504025029 26 90 0.0 6.4 0.00 0.00 0.00 50 1015.3
20260504024930 25 45 0.0 6.4 0.00 0.00 0.00 50 1015.4
20260504024830 25 0 0.0 6.4 0.00 0.00 0.00 50 1015.4
20260504024730 25 90 0.0 6.4 0.00 0.00 0.00 50 1015.3
20260504024629 25 0 0.0 6.4 0.00 0.00 0.00 50 1015.4
20260504024530 25 0 1.6 6.4 0.00 0.00 0.00 51 1015.4
20260504024430 25 45 0.0 6.4 0.00 0.00 0.00 51 1015.4
20260504024330 25 45 0.0 6.4 0.00 0.00 0.00 50 1015.4
20260504024229 25 90 0.0 6.4 0.00 0.00 0.00 50 1015.5
20260504024129 25 45 0.0 6.4 0.00 0.00 0.00 50 1015.5
20260504024030 25 90 0.0 6.4 0.00 0.00 0.00 50 1015.4
20260504023929 25 0 6.4 0.0 0.00 0.00 0.00 50 1015.5
20260504023829 -17 155 22.5 0.0 0.00 0.00 0.00
20260504023729 25 45 0.0 6.4 0.00 0.00 0.00 50 1015.5
20260504023630 25 45 0.0 6.4 0.00 0.00 0.00 50 1015.3
20260504023530 25 45 1.6 6.4 0.00 0.00 0.00 49 1015.3
20260504023429 25 45 0.0 6.4 0.00 0.00 0.00 49 1015.3
20260504023329 25 45 0.0 6.4 0.00 0.00 0.00 49 1015.5
20260504023230 25 45 1.6 6.4 0.00 0.00 0.00 48 1015.5
20260504023130 25 0 0.0 6.4 0.00 0.00 0.00 48 1015.4
20260504023029 25 45 0.0 4.8 0.00 0.00 0.00 48 1015.4
20260504022929 25 45 0.0 4.8 0.00 0.00 0.00 48 1015.4
20260504022829 25 45 0.0 4.8 0.00 0.00 0.00 49 1015.4
20260504022730 25 90 0.0 4.8 0.00 0.00 0.00 49 1015.4
20260504022630 25 45 0.0 4.8 0.00 0.00 0.00 50 1015.3
20260504022529 25 90 0.0 4.8 0.00 0.00 0.00 49 1015.2
20260504022429 25 90 0.0 4.8 0.00 0.00 0.00 49 1015.3
20260504022330 25 45 0.0 4.8 0.00 0.00 0.00 48 1015.3
20260504022229 25 45 0.0 4.8 0.00 0.00 0.00 49 1015.2
20260504022129 25 45 0.0 4.8 0.00 0.00 0.00 50 1015.4
20260504022029 25 45 0.0 4.8 0.00 0.00 0.00 50 1015.4
20260504021930 25 90 0.0 4.8 0.00 0.00 0.00 49 1015.4
20260504021830 25 0 0.0 4.8 0.00 0.00 0.00 50 1015.3
20260504021729 24 45 0.0 4.8 0.00 0.00 0.00 50 1015.3
20260504021629 24 45 1.6 4.8 0.00 0.00 0.00 49 1015.2
20260504021530 24 45 0.0 4.8 0.00 0.00 0.00 48 1015.3
20260504021430 25 0 0.0 4.8 0.00 0.00 0.00 48 1015.3
20260504021329 25 45 0.0 0.0 0.00 0.00 0.00 48 1015.5
20260504021229 25 0 0.0 0.0 0.00 0.00 0.00 47 1015.4
20260504021129 25 90 0.0 3.2 0.00 0.00 0.00 48 1015.4
20260504021030 25 45 0.0 4.8 0.00 0.00 0.00 47 1015.4
20260504020929 25 45 0.0 4.8 0.00 0.00 0.00 48 1015.4
20260504020829 25 45 0.0 4.8 0.00 0.00 0.00 48 1015.4
20260504020729 25 90 0.0 4.8 0.00 0.00 0.00 49 1015.4
20260504020630 25 45 0.0 4.8 0.00 0.00 0.00 49 1015.3
20260504020529 25 90 0.0 4.8 0.00 0.00 0.00 48 1015.4
20260504020429 25 90 0.0 4.8 0.00 0.00 0.00 49 1015.2
20260504020329 25 45 0.0 4.8 0.00 0.00 0.00 49 1015.2
20260504020230 25 45 0.0 4.8 0.00 0.00 0.00 49 1015.4
20260504020129 25 90 0.0 4.8 0.00 0.00 0.00 49 1015.5
20260504020029 25 45 0.0 4.8 0.00 0.00 0.00 49 1015.5
20260504015929 25 45 0.0 4.8 0.00 0.00 0.00 48 1015.4
20260504015830 25 0 1.6 4.8 0.00 0.00 0.00 47 1015.4
20260504015729 25 0 0.0 4.8 0.00 0.00 0.00 48 1015.4
20260504015629 25 0 0.0 4.8 0.00 0.00 0.00 49 1015.4
20260504015529 25 45 0.0 4.8 0.00 0.00 0.00 49 1015.2
20260504015429 25 45 0.0 4.8 0.00 0.00 0.00 49 1015.4
20260504015329 25 90 0.0 4.8 0.00 0.00 0.00 49 1015.5
20260504015229 25 90 0.0 4.8 0.00 0.00 0.00 50 1015.3
20260504015129 24 45 0.0 4.8 0.00 0.00 0.00 50 1015.3
20260504015029 24 45 0.0 4.8 0.00 0.00 0.00 48 1015.2
20260504014930 24 45 0.0 4.8 0.00 0.00 0.00 49 1015.3
20260504014829 24 90 0.0 4.8 0.00 0.00 0.00 50 1015.2
20260504014729 24 45 0.0 4.8 0.00 0.00 0.00 50 1015.3
20260504014629 24 45 0.0 0.0 0.00 0.00 0.00 50 1015.3
20260504014530 24 90 0.0 1.6 0.00 0.00 0.00 50 1015.4
20260504014429 23 45 0.0 4.8 0.00 0.00 0.00 51 1015.3
20260504014329 23 180 0.0 4.8 0.00 0.00 0.00 52 1015.3
20260504014229 23 180 0.0 4.8 0.00 0.00 0.00 51 1015.4
20260504014129 23 90 0.0 6.4 0.00 0.00 0.00 50 1015.3
20260504014030 23 90 0.0 6.4 0.00 0.00 0.00 51 1015.3
20260504013929 23 0 0.0 6.4 0.00 0.00 0.00 51 1015.4
20260504013829 23 45 0.0 6.4 0.00 0.00 0.00 52 1015.3
20260504013729 23 45 0.0 6.4 0.00 0.00 0.00 52 1015.4
20260504013629 23 180 0.0 6.4 0.00 0.00 0.00 52 1015.3
20260504013529 23 180 0.0 6.4 0.00 0.00 0.00 52 1015.3
20260504013429 23 180 0.0 6.4 0.00 0.00 0.00 52 1015.3
20260504013329 22 180 1.6 6.4 0.00 0.00 0.00 52 1015.4
20260504013229 22 180 0.0 6.4 0.00 0.00 0.00 52 1015.3
20260504013129 22 90 0.0 4.8 0.00 0.00 0.00 53 1015.3
20260504013029 22 0 0.0 4.8 0.00 0.00 0.00 53 1015.4
20260504012929 22 0 4.8 0.0 0.00 0.00 0.00 53 1015.4
20260504012829 22 90 0.0 6.4 0.00 0.00 0.00 54 1015.3
20260504012729 22 180 0.0 6.4 0.00 0.00 0.00 54 1015.3
20260504012629 22 180 0.0 6.4 0.00 0.00 0.00 55 1015.3
20260504012529 22 180 0.0 6.4 0.00 0.00 0.00 58 1015.5
20260504012429 22 90 0.0 6.4 0.00 0.00 0.00 58 1015.4
20260504012329 22 0 0.0 6.4 0.00 0.00 0.00 57 1015.3
20260504012229 22 0 0.0 6.4 0.00 0.00 0.00 57 1015.2
20260504012129 22 0 0.0 6.4 0.00 0.00 0.00 56 1015.3
20260504012029 22 315 0.0 6.4 0.00 0.00 0.00 55 1015.2
20260504011929 -17 151 24.1 0.0 0.00 0.00 0.00
20260504011829 22 0 0.0 6.4 0.00 0.00 0.00 56 1015.2
20260504011729 22 45 0.0 6.4 0.00 0.00 0.00 56 1015.4
20260504011629 22 45 0.0 6.4 0.00 0.00 0.00 56 1015.4
20260504011529 22 45 0.0 6.4 0.00 0.00 0.00 56 1015.4
20260504011429 22 90 0.0 6.4 0.00 0.00 0.00 56 1015.4
20260504011329 22 45 0.0 6.4 0.00 0.00 0.00 56 1015.5
20260504011229 22 45 0.0 6.4 0.00 0.00 0.00 56 1015.4
20260504011129 22 45 0.0 4.8 0.00 0.00 0.00 56 1015.4
20260504011029 22 45 0.0 4.8 0.00 0.00 0.00 57 1015.1
20260504010929 22 45 0.0 4.8 0.00 0.00 0.00 57 1015.2
20260504010829 22 45 0.0 4.8 0.00 0.00 0.00 57 1015.2
20260504010729 22 90 0.0 4.8 0.00 0.00 0.00 57 1015.2
20260504010629 22 0 1.6 4.8 0.00 0.00 0.00 57 1015.2
20260504010529 22 0 0.0 4.8 0.00 0.00 0.00 57 1015.2
20260504010429 22 45 0.0 4.8 0.00 0.00 0.00 57 1015.3
20260504010329 22 0 0.0 4.8 0.00 0.00 0.00 57 1015.2
20260504010229 23 45 0.0 4.8 0.00 0.00 0.00 58 1015.3
20260504010129 23 90 0.0 4.8 0.00 0.00 0.00 57 1015.3
20260504010029 23 0 0.0 4.8 0.00 0.00 0.00 57 1015.2
20260504005929 22 45 0.0 4.8 0.00 0.00 0.00 57 1015.2
20260504005829 22 180 0.0 4.8 0.00 0.00 0.00 56 1015.2
20260504005729 22 45 0.0 4.8 0.00 0.00 0.00 56 1015.3
20260504005629 22 45 0.0 3.2 0.00 0.00 0.00 56 1015.3
20260504005529 22 90 0.0 3.2 0.00 0.00 0.00 56 1015.4
20260504005429 22 45 0.0 3.2 0.00 0.00 0.00 55 1015.1
20260504005329 22 90 0.0 3.2 0.00 0.00 0.00 54 1015.1
20260504005229 22 90 0.0 3.2 0.00 0.00 0.00 54 1015.1
20260504005129 22 0 0.0 3.2 0.00 0.00 0.00 55 1015.2
20260504005029 22 0 0.0 3.2 0.00 0.00 0.00 55 1015.3
20260504004929 22 90 0.0 3.2 0.00 0.00 0.00 55 1015.3
20260504004829 22 0 0.0 4.8 0.00 0.00 0.00 55 1015.3
20260504004729 22 0 0.0 4.8 0.00 0.00 0.00 56 1015.2
20260504004629 21 90 0.0 4.8 0.00 0.00 0.00 56 1015.2
20260504004529 21 90 0.0 4.8 0.00 0.00 0.00 55 1015.0
20260504004429 21 45 0.0 4.8 0.00 0.00 0.00 55 1015.1
20260504004329 21 45 0.0 4.8 0.00 0.00 0.00 54 1015.1
20260504004229 21 0 0.0 4.8 0.00 0.00 0.00 54 1015.1
20260504004129 22 45 0.0 4.8 0.00 0.00 0.00 54 1015.2
20260504004029 22 45 0.0 4.8 0.00 0.00 0.00 54 1015.0
20260504003929 22 45 0.0 4.8 0.00 0.00 0.00 54 1015.1
20260504003829 22 45 0.0 0.0 0.00 0.00 0.00 54 1015.2
20260504003729 22 45 0.0 0.0 0.00 0.00 0.00 54 1015.0
20260504003629 22 0 0.0 0.0 0.00 0.00 0.00 55 1015.1
20260504003529 22 45 0.0 0.0 0.00 0.00 0.00 55 1015.1
20260504003429 22 90 0.0 0.0 0.00 0.00 0.00 56 1015.0
20260504003329 22 90 0.0 0.0 0.00 0.00 0.00 56 1015.1
20260504003229 22 45 0.0 3.2 0.00 0.00 0.00 56 1015.1
20260504003129 22 180 0.0 3.2 0.00 0.00 0.00 57 1014.9
20260504003029 22 180 0.0 3.2 0.00 0.00 0.00 58 1014.9
20260504002929 21 45 0.0 3.2 0.00 0.00 0.00 58 1014.9
20260504002829 21 0 3.2 0.0 0.00 0.00 0.00 57 1015.0
20260504002729 21 0 0.0 3.2 0.00 0.00 0.00 57 1015.0
20260504002629 21 90 0.0 3.2 0.00 0.00 0.00 57 1014.9
20260504002529 21 45 0.0 3.2 0.00 0.00 0.00 57 1015.1
20260504002429 21 45 0.0 3.2 0.00 0.00 0.00 57 1014.9
20260504002329 21 90 0.0 3.2 0.00 0.00 0.00 58 1014.8
20260504002229 21 45 0.0 0.0 0.00 0.00 0.00 58 1014.8
20260504002129 21 45 0.0 0.0 0.00 0.00 0.00 58 1015.1
20260504002029 21 45 0.0 0.0 0.00 0.00 0.00 59 1014.9
20260504001929 21 45 0.0 0.0 0.00 0.00 0.00 59 1015.1
20260504001829 21 45 0.0 0.0 0.00 0.00 0.00 58 1015.0
20260504001729 21 90 0.0 0.0 0.00 0.00 0.00 58 1015.0
20260504001629 21 0 0.0 0.0 0.00 0.00 0.00 58 1014.8
20260504001529 21 0 0.0 0.0 0.00 0.00 0.00 58 1014.8
20260504001429 21 45 0.0 0.0 0.00 0.00 0.00 58 1014.7
20260504001329 21 0 0.0 0.0 0.00 0.00 0.00 58 1014.9
20260504001229 21 45 0.0 0.0 0.00 0.00 0.00 57 1014.7
20260504001129 21 45 0.0 0.0 0.00 0.00 0.00 58 1014.8
20260504001029 22 0 0.0 0.0 0.00 0.00 0.00 58 1014.6
20260504000929 22 0 0.0 0.0 0.00 0.00 0.00 58 1014.6
20260504000829 22 0 0.0 0.0 0.00 0.00 0.00 58 1014.8
20260504000729 22 45 0.0 0.0 0.00 0.00 0.00 58 1014.8
20260504000629 22 90 0.0 0.0 0.00 0.00 0.00 59 1014.8
20260504000529 22 90 0.0 0.0 0.00 0.00 0.00 59 1014.8
20260504000431 21 90 0.0 0.0 0.00 0.00 0.00 60 1014.8
20260504000329 21 45 0.0 0.0 0.00 0.00 0.00 60 1014.9
20260504000229 21 45 0.0 0.0 0.00 0.00 0.00 60 1014.7
20260504000129 21 90 0.0 0.0 0.00 0.00 0.00 61 1014.7
20260504000029 21 90 0.0 0.0 0.00 0.00 0.00 61 1014.7
20260503235928 21 45 0.0 0.0 0.00 0.00 0.00 61 1014.7
20260503235829 21 90 0.0 0.0 0.00 0.00 0.00 61 1014.6
20260503235729 21 45 0.0 0.0 0.00 0.00 0.00 61 1014.9
20260503235629 21 180 0.0 0.0 0.00 0.00 0.00 60 1014.8
20260503235529 21 90 0.0 0.0 0.00 0.00 0.00 60 1014.8
20260503235429 21 180 0.0 0.0 0.00 0.00 0.00 60 1014.8
20260503235329 21 90 0.0 0.0 0.00 0.00 0.00 60 1014.8
20260503235229 21 0 0.0 0.0 0.00 0.00 0.00 60 1014.8
20260503235129 21 90 0.0 0.0 0.00 0.00 0.00 60 1014.8
20260503235029 21 45 0.0 0.0 0.00 0.00 0.00 61 1014.7
20260503234929 21 180 0.0 0.0 0.00 0.00 0.00 62 1014.7
20260503234829 21 90 0.0 0.0 0.00 0.00 0.00 62 1014.8
20260503234729 21 45 0.0 0.0 0.00 0.00 0.00 62 1014.6
20260503234629 21 180 0.0 0.0 0.00 0.00 0.00 62 1014.6
20260503234529 20 90 0.0 0.0 0.00 0.00 0.00 62 1014.6
20260503234429 20 180 0.0 0.0 0.00 0.00 0.00 62 1014.6
20260503234329 20 0 0.0 0.0 0.00 0.00 0.00 61 1014.6
20260503234229 20 0 0.0 0.0 0.00 0.00 0.00 61 1014.7
20260503234129 20 0 0.0 0.0 0.00 0.00 0.00 62 1014.6
20260503234028 20 0 0.0 0.0 0.00 0.00 0.00 62 1014.7
20260503233929 20 0 0.0 0.0 0.00 0.00 0.00 63 1014.7
20260503233829 20 0 0.0 0.0 0.00 0.00 0.00 63 1014.6
20260503233729 20 0 0.0 0.0 0.00 0.00 0.00 64 1014.5
20260503233528 20 180 0.0 0.0 0.00 0.00 0.00 65 1014.6
20260503233429 20 180 0.0 0.0 0.00 0.00 0.00 65 1014.4
20260503233329 20 180 0.0 0.0 0.00 0.00 0.00 66 1014.4
20260503233229 19 180 0.0 0.0 0.00 0.00 0.00 66 1014.4
20260503233129 19 0 0.0 0.0 0.00 0.00 0.00 67 1014.4
20260503233029 19 180 0.0 0.0 0.00 0.00 0.00 68 1014.5
20260503232928 19 180 0.0 0.0 0.00 0.00 0.00 68 1014.5
20260503232829 19 180 0.0 0.0 0.00 0.00 0.00 68 1014.5
20260503232729 18 180 0.0 0.0 0.00 0.00 0.00 69 1014.4
20260503232629 18 180 0.0 0.0 0.00 0.00 0.00 69 1014.5
20260503232529 18 180 0.0 0.0 0.00 0.00 0.00 70 1014.5
20260503232428 18 180 0.0 0.0 0.00 0.00 0.00 70 1014.5
20260503232328 18 180 0.0 0.0 0.00 0.00 0.00 71 1014.5
20260503232229 18 180 0.0 0.0 0.00 0.00 0.00 71 1014.5
20260503232129 18 180 0.0 0.0 0.00 0.00 0.00 72 1014.5
20260503232029 18 180 0.0 0.0 0.00 0.00 0.00 72 1014.5
20260503231929 18 180 0.0 0.0 0.00 0.00 0.00 72 1014.5
20260503231828 18 180 0.0 0.0 0.00 0.00 0.00 73 1014.6
20260503231728 18 0 0.0 0.0 0.00 0.00 0.00 73 1014.6
20260503231629 18 0 0.0 0.0 0.00 0.00 0.00 73 1014.6
20260503231529 18 0 0.0 0.0 0.00 0.00 0.00 73 1014.5
20260503231429 18 0 0.0 0.0 0.00 0.00 0.00 74 1014.5
20260503231329 17 0 0.0 0.0 0.00 0.00 0.00 74 1014.4
20260503231228 17 0 0.0 0.0 0.00 0.00 0.00 74 1014.5
20260503231128 17 0 0.0 0.0 0.00 0.00 0.00 75 1014.5
20260503231029 17 0 0.0 0.0 0.00 0.00 0.00 75 1014.6
20260503230929 17 0 0.0 0.0 0.00 0.00 0.00 75 1014.5
20260503230829 17 0 0.0 0.0 0.00 0.00 0.00 76 1014.5
20260503230729 17 0 0.0 0.0 0.00 0.00 0.00 76 1014.5
20260503230628 17 0 0.0 0.0 0.00 0.00 0.00 76 1014.5
20260503230528 17 0 0.0 0.0 0.00 0.00 0.00 77 1014.4
20260503230429 17 0 0.0 0.0 0.00 0.00 0.00 77 1014.4
20260503230329 17 0 0.0 0.0 0.00 0.00 0.00 78 1014.4
20260503230229 17 0 0.0 0.0 0.00 0.00 0.00 78 1014.4
20260503230128 17 0 0.0 0.0 0.00 0.00 0.00 79 1014.3
20260503230028 17 0 0.0 0.0 0.00 0.00 0.00 79 1014.4
20260503225928 17 0 0.0 0.0 0.00 0.00 0.00 80 1014.3
20260503225828 17 0 0.0 0.0 0.00 0.00 0.00 80 1014.4
20260503225729 16 0 0.0 0.0 0.00 0.00 0.00 81 1014.4
20260503225629 16 0 0.0 0.0 0.00 0.00 0.00 81 1014.3
20260503225528 16 0 0.0 0.0 0.00 0.00 0.00 82 1014.5
20260503225428 16 0 0.0 0.0 0.00 0.00 0.00 82 1014.3
20260503225328 16 0 0.0 0.0 0.00 0.00 0.00 83 1014.5
20260503225228 16 0 0.0 0.0 0.00 0.00 0.00 83 1014.3
20260503225129 16 225 0.0 0.0 0.00 0.00 0.00 84 1014.3
20260503225029 16 225 0.0 0.0 0.00 0.00 0.00 84 1014.5
20260503224928 16 225 0.0 0.0 0.00 0.00 0.00 84 1014.3
20260503224828 16 225 0.0 0.0 0.00 0.00 0.00 85 1014.3
20260503224728 16 225 0.0 0.0 0.00 0.00 0.00 85 1014.4
20260503224628 16 225 0.0 0.0 0.00 0.00 0.00 85 1014.4
20260503224528 16 225 0.0 0.0 0.00 0.00 0.00 86 1014.3
20260503224429 15 225 0.0 0.0 0.00 0.00 0.00 86 1014.4
20260503224329 15 225 0.0 0.0 0.00 0.00 0.00 87 1014.3
20260503224228 15 225 0.0 0.0 0.00 0.00 0.00 87 1014.3
20260503224128 15 225 0.0 0.0 0.00 0.00 0.00 87 1014.2
20260503224028 15 225 0.0 0.0 0.00 0.00 0.00 88 1014.3
20260503223928 15 225 0.0 0.0 0.00 0.00 0.00 88 1014.2
20260503223828 15 225 0.0 0.0 0.00 0.00 0.00 88 1014.2
20260503223728 15 225 0.0 0.0 0.00 0.00 0.00 88 1014.4
20260503223629 15 225 0.0 0.0 0.00 0.00 0.00 88 1014.3
20260503223528 15 225 0.0 0.0 0.00 0.00 0.00 88 1014.3
20260503223428 15 225 0.0 0.0 0.00 0.00 0.00 88 1014.2
20260503223328 15 225 0.0 0.0 0.00 0.00 0.00 88 1014.1
20260503223228 14 225 0.0 0.0 0.00 0.00 0.00 88 1014.2
20260503223128 14 225 0.0 0.0 0.00 0.00 0.00 88 1014.2
20260503223028 14 225 0.0 0.0 0.00 0.00 0.00 88 1014.1
20260503222928 14 225 0.0 0.0 0.00 0.00 0.00 88 1014.0
20260503222828 14 225 0.0 0.0 0.00 0.00 0.00 89 1014.1
20260503222728 14 225 0.0 0.0 0.00 0.00 0.00 89 1013.9
20260503222628 14 225 0.0 0.0 0.00 0.00 0.00 89 1014.0
20260503222528 14 225 0.0 0.0 0.00 0.00 0.00 89 1013.9
20260503222428 13 225 0.0 0.0 0.00 0.00 0.00 89 1014.0
20260503222328 13 225 0.0 0.0 0.00 0.00 0.00 89 1013.8
20260503222228 13 225 0.0 0.0 0.00 0.00 0.00 89 1014.0
20260503222128 13 225 0.0 0.0 0.00 0.00 0.00 89 1013.9
20260503222028 13 225 0.0 0.0 0.00 0.00 0.00 89 1013.9
20260503221928 13 225 0.0 0.0 0.00 0.00 0.00 89 1013.9
20260503221828 13 225 0.0 0.0 0.00 0.00 0.00 89 1013.9
20260503221728 13 225 0.0 0.0 0.00 0.00 0.00 90 1013.8
20260503221628 13 225 0.0 0.0 0.00 0.00 0.00 90 1013.9
20260503221528 13 225 0.0 0.0 0.00 0.00 0.00 89 1013.9
20260503221428 13 225 0.0 0.0 0.00 0.00 0.00 90 1014.0
20260503221328 13 225 0.0 0.0 0.00 0.00 0.00 90 1013.8
20260503221228 13 225 0.0 0.0 0.00 0.00 0.00 90 1013.8
20260503221128 13 225 0.0 0.0 0.00 0.00 0.00 90 1014.0
20260503221028 13 225 0.0 0.0 0.00 0.00 0.00 90 1013.9
20260503220928 13 225 0.0 0.0 0.00 0.00 0.00 90 1013.8
20260503220828 13 225 0.0 0.0 0.00 0.00 0.00 90 1013.9
20260503220728 13 225 0.0 0.0 0.00 0.00 0.00 90 1013.7
20260503220628 13 225 0.0 0.0 0.00 0.00 0.00 90 1013.8
20260503220528 13 225 0.0 0.0 0.00 0.00 0.00 90 1013.8
20260503220428 12 225 0.0 0.0 0.00 0.00 0.00 90 1013.9
20260503220228 12 225 0.0 0.0 0.00 0.00 0.00 90 1013.9
20260503220128 12 225 0.0 0.0 0.00 0.00 0.00 90 1013.8
20260503220028 12 225 0.0 0.0 0.00 0.00 0.00 90 1013.8
20260503215928 12 225 0.0 0.0 0.00 0.00 0.00 90 1014.0
20260503215828 12 225 0.0 0.0 0.00 0.00 0.00 90 1013.7
20260503215728 12 225 0.0 0.0 0.00 0.00 0.00 90 1014.0
20260503215628 12 225 0.0 0.0 0.00 0.00 0.00 90 1013.8
20260503215528 12 225 0.0 0.0 0.00 0.00 0.00 90 1013.7
20260503215428 12 225 0.0 0.0 0.00 0.00 0.00 90 1013.8
20260503215328 12 225 0.0 0.0 0.00 0.00 0.00 90 1013.8
20260503215228 12 225 0.0 0.0 0.00 0.00 0.00 89 1013.8
20260503215128 12 225 0.0 0.0 0.00 0.00 0.00 89 1013.8
20260503215028 12 225 0.0 0.0 0.00 0.00 0.00 89 1013.7
20260503214928 12 225 0.0 0.0 0.00 0.00 0.00 89 1013.8
20260503214828 12 225 0.0 0.0 0.00 0.00 0.00 89 1013.7
20260503214728 12 225 0.0 0.0 0.00 0.00 0.00 89 1013.7
20260503214629 12 225 0.0 0.0 0.00 0.00 0.00 89 1013.7
20260503214528 12 225 0.0 0.0 0.00 0.00 0.00 89 1013.8
20260503214428 12 225 0.0 0.0 0.00 0.00 0.00 89 1013.8
20260503214328 12 225 0.0 0.0 0.00 0.00 0.00 89 1013.6
20260503214228 12 225 0.0 0.0 0.00 0.00 0.00 89 1013.6
20260503214129 12 225 0.0 0.0 0.00 0.00 0.00 89 1013.6
20260503214029 12 225 0.0 0.0 0.00 0.00 0.00 89 1013.6
20260503213929 12 225 0.0 0.0 0.00 0.00 0.00 89 1013.6
20260503213828 11 225 0.0 0.0 0.00 0.00 0.00 89 1013.6
20260503213728 12 225 0.0 0.0 0.00 0.00 0.00 88 1013.5
20260503213628 12 225 0.0 0.0 0.00 0.00 0.00 88 1013.6
20260503213528 12 225 0.0 0.0 0.00 0.00 0.00 88 1013.4
20260503213428 12 225 0.0 0.0 0.00 0.00 0.00 88 1013.4
20260503213328 12 225 0.0 0.0 0.00 0.00 0.00 88 1013.6
20260503213228 12 225 0.0 0.0 0.00 0.00 0.00 88 1013.5
20260503213128 12 225 0.0 0.0 0.00 0.00 0.00 88 1013.3
20260503213028 12 225 0.0 0.0 0.00 0.00 0.00 88 1013.4
20260503212928 12 225 0.0 0.0 0.00 0.00 0.00 88 1013.4
20260503212829 12 225 0.0 0.0 0.00 0.00 0.00 88 1013.5
20260503212729 12 225 0.0 0.0 0.00 0.00 0.00 88 1013.5
20260503212628 12 225 0.0 0.0 0.00 0.00 0.00 88 1013.4
20260503212528 12 225 0.0 0.0 0.00 0.00 0.00 88 1013.4
20260503212428 11 225 0.0 0.0 0.00 0.00 0.00 88 1013.4
20260503212328 11 225 0.0 0.0 0.00 0.00 0.00 88 1013.4
20260503212228 11 225 0.0 0.0 0.00 0.00 0.00 88 1013.5
20260503212128 11 225 0.0 0.0 0.00 0.00 0.00 88 1013.4
20260503212028 12 225 0.0 0.0 0.00 0.00 0.00 88 1013.6
20260503211928 12 225 0.0 0.0 0.00 0.00 0.00 88 1013.3
20260503211828 -17 135 29.0 0.0 0.00 0.00 0.00
20260503211728 12 225 0.0 0.0 0.00 0.00 0.00 88 1013.3
20260503211628 12 225 0.0 0.0 0.00 0.00 0.00 88 1013.4
20260503211528 12 225 0.0 0.0 0.00 0.00 0.00 88 1013.3
20260503211428 12 225 0.0 0.0 0.00 0.00 0.00 88 1013.2
20260503211328 12 225 0.0 0.0 0.00 0.00 0.00 88 1013.2
20260503211228 12 225 0.0 0.0 0.00 0.00 0.00 88 1013.2
20260503211128 12 225 0.0 0.0 0.00 0.00 0.00 88 1013.4
20260503211028 12 225 0.0 0.0 0.00 0.00 0.00 88 1013.3
20260503210928 12 225 0.0 0.0 0.00 0.00 0.00 88 1013.2
20260503210828 12 225 0.0 0.0 0.00 0.00 0.00 88 1013.3
20260503210728 12 225 0.0 0.0 0.00 0.00 0.00 88 1013.3
20260503210628 12 225 0.0 0.0 0.00 0.00 0.00 88 1013.3
20260503210528 12 225 0.0 0.0 0.00 0.00 0.00 88 1013.4
20260503210428 12 225 0.0 0.0 0.00 0.00 0.00 88 1013.2
20260503210328 12 225 0.0 0.0 0.00 0.00 0.00 88 1013.2
20260503210228 12 225 0.0 0.0 0.00 0.00 0.00 88 1013.3
20260503210128 12 225 0.0 0.0 0.00 0.00 0.00 87 1013.3
20260503210028 12 225 0.0 0.0 0.00 0.00 0.00 88 1013.2
20260503205928 12 225 0.0 0.0 0.00 0.00 0.00 88 1013.3
20260503205828 12 225 0.0 0.0 0.00 0.00 0.00 87 1013.1
20260503205728 12 225 0.0 0.0 0.00 0.00 0.00 87 1013.1
20260503205628 12 225 0.0 0.0 0.00 0.00 0.00 88 1013.2
20260503205528 12 225 0.0 0.0 0.00 0.00 0.00 88 1013.1
20260503205427 12 225 0.0 0.0 0.00 0.00 0.00 88 1013.1
20260503205328 12 225 0.0 0.0 0.00 0.00 0.00 88 1013.1
20260503205228 12 225 0.0 0.0 0.00 0.00 0.00 88 1013.0
20260503205128 12 225 0.0 0.0 0.00 0.00 0.00 88 1013.2
20260503204928 12 225 0.0 0.0 0.00 0.00 0.00 88 1013.0
20260503204828 12 225 0.0 0.0 0.00 0.00 0.00 88 1013.1
20260503204728 12 225 0.0 0.0 0.00 0.00 0.00 88 1013.1
20260503204628 12 225 0.0 0.0 0.00 0.00 0.00 88 1013.0
20260503204528 12 225 0.0 0.0 0.00 0.00 0.00 88 1013.2
20260503204428 12 225 0.0 0.0 0.00 0.00 0.00 88 1013.1
20260503204328 12 225 0.0 0.0 0.00 0.00 0.00 88 1013.2
20260503204228 12 225 0.0 0.0 0.00 0.00 0.00 87 1013.1
20260503204128 12 225 0.0 0.0 0.00 0.00 0.00 87 1013.1
20260503204027 12 225 0.0 0.0 0.00 0.00 0.00 87 1013.3
20260503203928 12 225 0.0 0.0 0.00 0.00 0.00 87 1012.9
20260503203828 12 225 0.0 0.0 0.00 0.00 0.00 87 1013.0
20260503203728 12 225 0.0 0.0 0.00 0.00 0.00 87 1012.9
20260503203628 12 225 0.0 0.0 0.00 0.00 0.00 87 1013.0
20260503203528 12 225 0.0 0.0 0.00 0.00 0.00 86 1013.1
20260503203428 12 225 0.0 0.0 0.00 0.00 0.00 86 1013.1
20260503203328 12 225 0.0 0.0 0.00 0.00 0.00 86 1013.0
20260503203228 12 225 0.0 0.0 0.00 0.00 0.00 86 1012.9
20260503203128 12 225 0.0 0.0 0.00 0.00 0.00 86 1012.9
20260503203028 12 225 0.0 0.0 0.00 0.00 0.00 86 1013.0
20260503202928 12 225 0.0 0.0 0.00 0.00 0.00 86 1013.0
20260503202828 12 225 0.0 0.0 0.00 0.00 0.00 87 1013.1
20260503202728 12 225 0.0 0.0 0.00 0.00 0.00 86 1013.1
20260503202628 12 225 0.0 0.0 0.00 0.00 0.00 86 1013.1
20260503202528 12 225 0.0 0.0 0.00 0.00 0.00 87 1013.0
20260503202428 12 225 0.0 0.0 0.00 0.00 0.00 87 1013.3
20260503202328 12 225 0.0 0.0 0.00 0.00 0.00 86 1013.2
20260503202228 12 225 0.0 0.0 0.00 0.00 0.00 86 1013.2
20260503202128 12 225 0.0 0.0 0.00 0.00 0.00 86 1013.1
20260503202028 12 225 0.0 0.0 0.00 0.00 0.00 86 1013.0
20260503201928 12 225 0.0 0.0 0.00 0.00 0.00 86 1012.9
20260503201828 12 225 0.0 0.0 0.00 0.00 0.00 86 1012.9
20260503201728 12 225 0.0 0.0 0.00 0.00 0.00 86 1013.0
20260503201628 12 225 0.0 0.0 0.00 0.00 0.00 86 1013.0
20260503201528 12 225 0.0 0.0 0.00 0.00 0.00 86 1012.9
20260503201428 12 225 0.0 0.0 0.00 0.00 0.00 86 1012.9
20260503201328 12 225 0.0 0.0 0.00 0.00 0.00 86 1013.1
20260503201228 12 225 0.0 0.0 0.00 0.00 0.00 86 1013.2
20260503201128 12 225 0.0 0.0 0.00 0.00 0.00 86 1013.0
20260503201028 12 225 0.0 0.0 0.00 0.00 0.00 86 1013.0
20260503200928 12 225 0.0 0.0 0.00 0.00 0.00 86 1012.9
20260503200828 12 225 0.0 0.0 0.00 0.00 0.00 86 1013.0
20260503200728 12 225 0.0 0.0 0.00 0.00 0.00 86 1012.9
20260503200628 12 225 0.0 0.0 0.00 0.00 0.00 86 1013.2
20260503200528 12 225 0.0 0.0 0.00 0.00 0.00 86 1013.0
20260503200427 12 225 0.0 0.0 0.00 0.00 0.00 86 1013.0
20260503200327 12 225 0.0 0.0 0.00 0.00 0.00 86 1013.0
20260503200227 12 225 0.0 0.0 0.00 0.00 0.00 86 1013.1
20260503200128 12 225 0.0 0.0 0.00 0.00 0.00 85 1013.2
20260503200028 12 225 0.0 0.0 0.00 0.00 0.00 85 1013.1
20260503195928 12 225 0.0 0.0 0.00 0.00 0.00 85 1013.1
20260503195828 12 225 0.0 0.0 0.00 0.00 0.00 85 1013.1
20260503195728 12 225 0.0 0.0 0.00 0.00 0.00 85 1013.2
20260503195628 12 225 0.0 0.0 0.00 0.00 0.00 85 1013.1
20260503195528 12 225 0.0 0.0 0.00 0.00 0.00 85 1013.1
20260503195428 12 225 0.0 0.0 0.00 0.00 0.00 85 1013.1
20260503195328 12 225 0.0 0.0 0.00 0.00 0.00 85 1013.0
20260503195228 12 225 0.0 0.0 0.00 0.00 0.00 85 1013.1
20260503195128 12 225 0.0 0.0 0.00 0.00 0.00 85 1013.3
20260503195027 12 225 0.0 0.0 0.00 0.00 0.00 85 1013.2
20260503194927 12 225 0.0 0.0 0.00 0.00 0.00 85 1013.1
20260503194827 13 225 0.0 0.0 0.00 0.00 0.00 85 1013.0
20260503194727 13 90 0.0 0.0 0.00 0.00 0.00 85 1013.0
20260503194628 13 90 0.0 0.0 0.00 0.00 0.00 85 1013.0
20260503194528 13 90 0.0 0.0 0.00 0.00 0.00 85 1013.1
20260503194428 13 90 0.0 0.0 0.00 0.00 0.00 85 1013.1
20260503194328 13 90 0.0 0.0 0.00 0.00 0.00 84 1013.0
20260503194228 13 90 0.0 0.0 0.00 0.00 0.00 84 1012.9
20260503194128 13 0 0.0 0.0 0.00 0.00 0.00 84 1012.9
20260503194027 13 0 0.0 0.0 0.00 0.00 0.00 84 1013.0
20260503193928 13 0 0.0 0.0 0.00 0.00 0.00 84 1013.1
20260503193827 13 0 0.0 0.0 0.00 0.00 0.00 84 1013.0
20260503193727 13 0 0.0 0.0 0.00 0.00 0.00 84 1013.0
20260503193627 13 0 0.0 0.0 0.00 0.00 0.00 83 1012.9
20260503193527 13 0 0.0 0.0 0.00 0.00 0.00 83 1012.9
20260503193427 13 0 0.0 0.0 0.00 0.00 0.00 83 1012.9
20260503193327 13 0 0.0 0.0 0.00 0.00 0.00 83 1013.0
20260503193227 13 0 0.0 0.0 0.00 0.00 0.00 83 1013.1
20260503193128 13 0 0.0 0.0 0.00 0.00 0.00 83 1013.0
20260503193028 13 0 0.0 0.0 0.00 0.00 0.00 83 1013.2
20260503192928 13 0 0.0 0.0 0.00 0.00 0.00 83 1013.1
20260503192828 13 0 0.0 0.0 0.00 0.00 0.00 83 1013.0
20260503192728 13 0 0.0 0.0 0.00 0.00 0.00 83 1013.0
20260503192627 13 0 0.0 0.0 0.00 0.00 0.00 83 1013.0
20260503192527 13 0 0.0 0.0 0.00 0.00 0.00 83 1013.0
20260503192427 13 0 0.0 0.0 0.00 0.00 0.00 82 1013.0
20260503192327 13 0 0.0 0.0 0.00 0.00 0.00 82 1013.0
20260503192227 13 0 0.0 0.0 0.00 0.00 0.00 82 1013.0
20260503192127 13 45 0.0 0.0 0.00 0.00 0.00 82 1013.2
20260503192027 13 45 0.0 0.0 0.00 0.00 0.00 82 1013.0
20260503191928 13 45 0.0 0.0 0.00 0.00 0.00 82 1013.0
20260503191828 13 45 0.0 0.0 0.00 0.00 0.00 82 1013.1
20260503191728 13 45 0.0 0.0 0.00 0.00 0.00 81 1013.2
20260503191628 13 45 0.0 0.0 0.00 0.00 0.00 81 1013.1
20260503191527 13 225 0.0 0.0 0.00 0.00 0.00 81 1012.9
20260503191427 13 225 0.0 0.0 0.00 0.00 0.00 81 1012.9
20260503191327 13 225 0.0 0.0 0.00 0.00 0.00 81 1012.9
20260503191227 13 225 0.0 0.0 0.00 0.00 0.00 81 1012.9
20260503191127 13 225 0.0 0.0 0.00 0.00 0.00 81 1013.0
20260503191027 13 225 0.0 0.0 0.00 0.00 0.00 81 1012.9
20260503190927 13 225 0.0 0.0 0.00 0.00 0.00 81 1013.0
20260503190827 13 225 0.0 0.0 0.00 0.00 0.00 80 1012.9
20260503190728 13 225 0.0 0.0 0.00 0.00 0.00 80 1012.9
20260503190628 13 225 0.0 0.0 0.00 0.00 0.00 80 1012.9
20260503190528 13 225 0.0 0.0 0.00 0.00 0.00 80 1012.9
20260503190427 13 225 0.0 0.0 0.00 0.00 0.00 80 1012.8
20260503190327 13 225 0.0 0.0 0.00 0.00 0.00 80 1013.0
20260503190227 14 225 0.0 0.0 0.00 0.00 0.00 80 1012.9
20260503190127 13 225 0.0 0.0 0.00 0.00 0.00 80 1012.9
20260503190027 13 225 0.0 0.0 0.00 0.00 0.00 80 1012.7
20260503185927 14 225 0.0 0.0 0.00 0.00 0.00 79 1012.7
20260503185827 14 0 0.0 0.0 0.00 0.00 0.00 79 1012.9
20260503185727 14 180 0.0 0.0 0.00 0.00 0.00 79 1012.8
20260503185627 14 45 0.0 0.0 0.00 0.00 0.00 79 1012.7
20260503185527 14 45 0.0 0.0 0.00 0.00 0.00 79 1012.8
20260503185427 14 225 0.0 0.0 0.00 0.00 0.00 78 1012.7
20260503185327 14 225 0.0 0.0 0.00 0.00 0.00 78 1012.6
20260503185227 14 225 0.0 0.0 0.00 0.00 0.00 78 1012.6
20260503185127 14 225 0.0 0.0 0.00 0.00 0.00 78 1012.5
20260503185027 14 225 0.0 0.0 0.00 0.00 0.00 78 1012.7
20260503184927 14 225 0.0 0.0 0.00 0.00 0.00 78 1012.6
20260503184827 14 225 0.0 0.0 0.00 0.00 0.00 77 1012.7
20260503184727 14 0 0.0 0.0 0.00 0.00 0.00 77 1012.5
20260503184627 14 0 0.0 0.0 0.00 0.00 0.00 77 1012.7
20260503184527 15 225 0.0 0.0 0.00 0.00 0.00 77 1012.7
20260503184427 15 225 0.0 0.0 0.00 0.00 0.00 77 1012.6
20260503184327 15 225 0.0 0.0 0.00 0.00 0.00 77 1012.5
20260503184227 15 225 0.0 0.0 0.00 0.00 0.00 77 1012.7
20260503184127 15 90 0.0 0.0 0.00 0.00 0.00 77 1012.6
20260503184027 15 315 0.0 0.0 0.00 0.00 0.00 77 1012.8
20260503183927 15 0 0.0 0.0 0.00 0.00 0.00 77 1012.8
20260503183827 15 315 0.0 4.8 0.00 0.00 0.00 77 1012.6
20260503183727 15 0 0.0 4.8 0.00 0.00 0.00 77 1012.8
20260503183627 15 45 0.0 4.8 0.00 0.00 0.00 77 1012.7
20260503183427 15 0 0.0 4.8 0.00 0.00 0.00 77 1012.5
20260503183327 15 315 0.0 4.8 0.00 0.00 0.00 77 1012.6
20260503183227 15 90 0.0 4.8 0.00 0.00 0.00 77 1012.6
20260503183127 14 0 0.0 4.8 0.00 0.00 0.00 76 1012.6
20260503183027 14 90 0.0 4.8 0.00 0.00 0.00 76 1012.7
20260503182928 14 0 0.0 4.8 0.00 0.00 0.00 76 1012.7
20260503182827 14 315 0.0 3.2 0.00 0.00 0.00 76 1012.6
20260503182727 14 0 0.0 0.0 0.00 0.00 0.00 76 1012.6
20260503182627 14 45 0.0 0.0 0.00 0.00 0.00 76 1012.6
20260503182527 14 90 0.0 0.0 0.00 0.00 0.00 75 1012.6
20260503182427 14 45 0.0 0.0 0.00 0.00 0.00 76 1012.4
20260503182328 14 0 0.0 0.0 0.00 0.00 0.00 76 1012.4
20260503182227 14 0 0.0 0.0 0.00 0.00 0.00 76 1012.5
20260503182127 14 0 0.0 0.0 0.00 0.00 0.00 76 1012.3
20260503182027 14 0 0.0 0.0 0.00 0.00 0.00 75 1012.4
20260503181927 14 315 0.0 0.0 0.00 0.00 0.00 75 1012.3
20260503181827 14 225 0.0 0.0 0.00 0.00 0.00 75 1012.4
20260503181727 14 225 0.0 0.0 0.00 0.00 0.00 75 1012.4
20260503181627 14 225 0.0 0.0 0.00 0.00 0.00 75 1012.4
20260503181528 14 225 0.0 0.0 0.00 0.00 0.00 75 1012.5
20260503181428 14 225 0.0 0.0 0.00 0.00 0.00 75 1012.5
20260503181328 14 225 0.0 0.0 0.00 0.00 0.00 75 1012.4
20260503181228 14 225 0.0 0.0 0.00 0.00 0.00 75 1012.3
20260503181128 14 225 0.0 0.0 0.00 0.00 0.00 75 1012.6
20260503181027 14 225 0.0 0.0 0.00 0.00 0.00 75 1012.6
20260503180927 14 225 0.0 0.0 0.00 0.00 0.00 75 1012.5
20260503180827 14 225 0.0 0.0 0.00 0.00 0.00 75 1012.4
20260503180727 14 225 0.0 0.0 0.00 0.00 0.00 75 1012.4
20260503180528 14 0 0.0 0.0 0.00 0.00 0.00 75 1012.4
20260503180427 14 0 0.0 0.0 0.00 0.00 0.00 75 1012.4
20260503180327 14 0 0.0 0.0 0.00 0.00 0.00 75 1012.4
20260503180228 14 0 0.0 0.0 0.00 0.00 0.00 75 1012.5
20260503180128 14 0 0.0 0.0 0.00 0.00 0.00 75 1012.5
20260503180027 14 0 0.0 0.0 0.00 0.00 0.00 75 1012.4
20260503175927 14 0 0.0 0.0 0.00 0.00 0.00 75 1012.4
20260503175827 14 0 0.0 0.0 0.00 0.00 0.00 75 1012.5
20260503175727 14 0 0.0 0.0 0.00 0.00 0.00 74 1012.4
20260503175627 14 0 0.0 0.0 0.00 0.00 0.00 74 1012.6
20260503175527 14 0 0.0 0.0 0.00 0.00 0.00 74 1012.5
20260503175427 14 0 0.0 0.0 0.00 0.00 0.00 74 1012.4
20260503175327 14 0 0.0 0.0 0.00 0.00 0.00 74 1012.5
20260503175227 14 0 0.0 0.0 0.00 0.00 0.00 74 1012.5
20260503175127 15 0 0.0 0.0 0.00 0.00 0.00 74 1012.4
20260503175027 15 0 0.0 0.0 0.00 0.00 0.00 74 1012.5
20260503174927 15 0 0.0 0.0 0.00 0.00 0.00 74 1012.5
20260503174827 15 0 0.0 0.0 0.00 0.00 0.00 74 1012.5
20260503174727 15 0 0.0 0.0 0.00 0.00 0.00 74 1012.6
20260503174627 15 0 0.0 0.0 0.00 0.00 0.00 74 1012.5
20260503174527 15 0 0.0 0.0 0.00 0.00 0.00 74 1012.6
20260503174427 15 0 0.0 0.0 0.00 0.00 0.00 74 1012.5
20260503174327 15 225 0.0 0.0 0.00 0.00 0.00 74 1012.6
20260503174227 15 225 0.0 0.0 0.00 0.00 0.00 74 1012.6
20260503174027 15 225 0.0 0.0 0.00 0.00 0.00 74 1012.4
20260503173927 15 225 0.0 0.0 0.00 0.00 0.00 73 1012.4
20260503173827 15 225 0.0 0.0 0.00 0.00 0.00 73 1012.5
20260503173727 15 225 0.0 0.0 0.00 0.00 0.00 73 1012.5
20260503173627 15 225 0.0 0.0 0.00 0.00 0.00 73 1012.6
20260503173527 15 225 0.0 0.0 0.00 0.00 0.00 73 1012.5
20260503173427 15 225 0.0 0.0 0.00 0.00 0.00 73 1012.4
20260503173327 15 225 0.0 0.0 0.00 0.00 0.00 73 1012.4
20260503173227 15 225 0.0 0.0 0.00 0.00 0.00 73 1012.5
20260503173127 15 225 0.0 0.0 0.00 0.00 0.00 72 1012.3
20260503173027 15 225 0.0 0.0 0.00 0.00 0.00 72 1012.4
20260503172927 15 225 0.0 0.0 0.00 0.00 0.00 72 1012.3
20260503172827 15 225 0.0 0.0 0.00 0.00 0.00 72 1012.4
20260503172727 15 225 0.0 0.0 0.00 0.00 0.00 71 1012.3
20260503172627 15 225 0.0 0.0 0.00 0.00 0.00 71 1012.2
20260503172527 15 225 0.0 0.0 0.00 0.00 0.00 71 1012.2
20260503172427 15 225 0.0 0.0 0.00 0.00 0.00 71 1012.3
20260503172327 15 225 0.0 0.0 0.00 0.00 0.00 70 1012.2
20260503172227 15 225 0.0 0.0 0.00 0.00 0.00 70 1012.2
20260503172127 15 225 0.0 0.0 0.00 0.00 0.00 70 1012.2
20260503172026 15 0 0.0 0.0 0.00 0.00 0.00 69 1012.1
20260503171927 15 225 0.0 0.0 0.00 0.00 0.00 69 1012.0
20260503171827 15 225 0.0 0.0 0.00 0.00 0.00 69 1012.3
20260503171727 15 225 0.0 0.0 0.00 0.00 0.00 69 1012.0
20260503171627 15 225 0.0 0.0 0.00 0.00 0.00 69 1012.0
20260503171527 15 225 0.0 0.0 0.00 0.00 0.00 68 1012.1
20260503171427 15 225 0.0 0.0 0.00 0.00 0.00 68 1012.2
20260503171327 15 225 0.0 0.0 0.00 0.00 0.00 68 1012.0
20260503171227 15 225 0.0 0.0 0.00 0.00 0.00 68 1012.0
20260503171127 15 225 0.0 0.0 0.00 0.00 0.00 67 1012.1
20260503171027 15 225 0.0 0.0 0.00 0.00 0.00 67 1012.0
20260503170927 15 225 0.0 0.0 0.00 0.00 0.00 67 1012.0
20260503170827 15 225 0.0 0.0 0.00 0.00 0.00 67 1012.2
20260503170727 16 0 0.0 0.0 0.00 0.00 0.00 67 1012.1
20260503170627 16 0 0.0 0.0 0.00 0.00 0.00 67 1012.2
20260503170527 16 0 0.0 0.0 0.00 0.00 0.00 67 1012.3
20260503170427 16 0 0.0 0.0 0.00 0.00 0.00 66 1012.2
20260503170327 16 225 0.0 0.0 0.00 0.00 0.00 66 1012.1
20260503170227 16 0 0.0 0.0 0.00 0.00 0.00 66 1012.2
20260503170127 16 0 0.0 0.0 0.00 0.00 0.00 66 1012.4
20260503160127 16 225 0.0 0.0 0.00 0.00 0.00 63 1012.2
20260503150926 16 225 0.0 0.0 0.00 0.00 0.00 66 1012.3
20260503150826 16 0 0.0 0.0 0.00 0.00 0.00 66 1012.4
20260503150726 16 0 0.0 0.0 0.00 0.00 0.00 66 1012.4
20260503150626 16 225 0.0 0.0 0.00 0.00 0.00 66 1012.4
20260503150526 16 225 0.0 0.0 0.00 0.00 0.00 66 1012.3
20260503150426 16 225 0.0 0.0 0.00 0.00 0.00 66 1012.4
20260503150326 16 225 0.0 0.0 0.00 0.00 0.00 66 1012.4
20260503150226 16 0 0.0 0.0 0.00 0.00 0.00 66 1012.5
20260503150126 16 225 0.0 0.0 0.00 0.00 0.00 67 1012.4
20260503140226 15 225 0.0 0.0 0.00 0.00 0.00 70 1012.2
20260503140126 15 225 0.0 0.0 0.00 0.00 0.00 70 1012.1
20260503131326 15 225 0.0 0.0 0.00 0.00 0.00 80 1011.7
20260503131226 15 0 0.0 0.0 0.00 0.00 0.00 79 1011.9
20260503131126 15 225 0.0 0.0 0.00 0.00 0.00 79 1011.7
20260503131026 15 225 0.0 0.0 0.00 0.00 0.00 79 1011.8
20260503130925 15 225 0.0 0.0 0.00 0.00 0.00 79 1011.7
20260503130825 15 0 0.0 0.0 0.00 0.00 0.00 79 1011.6
20260503130725 15 225 0.0 0.0 0.00 0.00 0.00 79 1011.8
20260503130626 15 225 0.0 0.0 0.00 0.00 0.00 79 1011.9
20260503130526 15 225 0.0 0.0 0.00 0.00 0.00 79 1011.9
20260503130426 15 225 0.0 0.0 0.00 0.00 0.00 79 1011.8
20260503130326 15 225 0.0 0.0 0.00 0.00 0.00 79 1011.7
20260503130226 15 225 0.0 0.0 0.00 0.00 0.00 79 1011.8
20260503130126 15 225 0.0 0.0 0.00 0.00 0.00 79 1011.9
20260503120125 15 0 0.0 0.0 0.00 0.03 0.00 76 1010.8